Location: Cambridge (historical)
(38.6883°N, 119.0140°W)
Time: 16:37:23
(UTC+00:00)

CZ-4B R/B - Pass Details

Date: 29 October 2020
Orbit: 496 x 647 km, 97.8° (Epoch: 23 November)

Event Time Altitude Azimuth Distance (km) Brightness Sun altitude
Rises 12:55:19 0° 9° (N) 2,839 7.5 -17.1°
Reaches altitude 10° 12:57:33 10° 6° (N) 1,909 6.6 -16.7°
Maximum altitude 13:01:39 65° 285° (WNW) 621 3.8 -15.9°
Drops below altitude 10° 13:05:31 10° 203° (SSW) 1,804 6.3 -15.1°
Sets 13:07:34 0° 201° (SSW) 2,668 7.2 -14.7°
